Weather History for KLGD - February, 2014

Change the Weather History Date:

Wednesday, February 19, 2014

  Actual Average Record
Temperature  
Mean Temperature 35 °F -  
Max Temperature 42 °F 41 °F 64 °F (1982)
Min Temperature 28 °F 27 °F 1 °F (2006)
Degree Days  
Heating Degree Days 30    
Moisture  
Dew Point 21 °F    
Average Humidity 57    
Maximum Humidity 75    
Minimum Humidity 39    
Precipitation  
Precipitation 0.01 in - - ()
Sea Level Pressure  
Sea Level Pressure 30.00 in    
Wind  
Wind Speed 13 mph (NW)    
Max Wind Speed 24 mph    
Max Gust Speed 36 mph    
Visibility 9 miles    
Events      
Averages and records for this station are not official NWS values.
T = Trace of Precipitation, MM = Missing Value Source: NWS Daily Summary

Daily Weather History Graph

Daily Weather History Graph

Search for Another Location

Airport or City:

Trip Planner

Search our weather history database for the weather conditions in past years. The results will help you decide how hot, cold, wet, or windy it might be!

Date:

Astronomy

Feb. 19, 2014 Rise Set
Actual Time 6:46 AM PST 5:25 PM PST
Civil Twilight 6:16 AM PST 5:55 PM PST
Nautical Twilight 5:42 AM PST 6:29 PM PST
Astronomical Twilight 5:08 AM PST 7:04 PM PST
Moon 10:39 PM PST (2/19) 8:41 AM PST (2/19)
Length of Visible Light 11h 38m
Length of Day
10h 38m
Waning Gibbous, 79% of the Moon is Illuminated
Feb 19
Waning Gibbous
Feb 22
Last Quarter
Mar 1
New
Mar 8
First Quarter
Mar 16
Full

Hourly Weather History & Observations

Time (PST) Temp. Windchill Dew Point Humidity Pressure Visibility Wind Dir Wind Speed Gust Speed Precip Events Conditions
12:15 AM 37.4 °F 26.6 °F 24.8 °F 60% 29.80 in 10.0 mi WNW 21.9 mph 27.6 mph N/A   Scattered Clouds
12:35 AM 37.4 °F 26.9 °F 21.2 °F 52% 29.82 in 10.0 mi WNW 20.7 mph 35.7 mph N/A   Partly Cloudy
12:55 AM 35.6 °F 24.2 °F 21.2 °F 56% 29.82 in 10.0 mi NW 21.9 mph 31.1 mph 0.01 in   Clear
1:15 AM 35.6 °F 24.0 °F 21.2 °F 56% 29.83 in 10.0 mi WNW 23.0 mph 32.2 mph N/A   Clear
1:35 AM 35.6 °F 24.2 °F 19.4 °F 52% 29.84 in 10.0 mi WNW 21.9 mph 26.5 mph N/A   Clear
1:55 AM 33.8 °F 25.3 °F 19.4 °F 56% 29.85 in 10.0 mi WNW 11.5 mph 20.7 mph N/A   Clear
2:15 AM 33.8 °F 29.6 °F 19.4 °F 56% 29.88 in 10.0 mi NE 4.6 mph - N/A   Clear
2:35 AM 32.0 °F 23.6 °F 19.4 °F 60% 29.89 in 10.0 mi ENE 10.4 mph - N/A   Clear
2:55 AM 33.8 °F 27.0 °F 19.4 °F 56% 29.90 in 10.0 mi NE 8.1 mph - N/A   Partly Cloudy
3:15 AM 33.8 °F 27.7 °F 19.4 °F 56% 29.90 in 10.0 mi NNE 6.9 mph - N/A   Mostly Cloudy
3:35 AM 33.8 °F 29.6 °F 19.4 °F 56% 29.90 in 10.0 mi North 4.6 mph - N/A   Overcast
3:55 AM 32.0 °F 27.5 °F 17.6 °F 55% 29.90 in 10.0 mi NNE 4.6 mph - N/A   Partly Cloudy
4:15 AM 30.2 °F 26.7 °F 17.6 °F 60% 29.91 in 10.0 mi North 3.5 mph - N/A   Clear
4:35 AM 28.4 °F 22.2 °F 17.6 °F 64% 29.91 in 10.0 mi SSW 5.8 mph - N/A   Clear
4:55 AM 28.4 °F 21.2 °F 17.6 °F 64% 29.92 in 10.0 mi South 6.9 mph - N/A   Clear
5:15 AM 28.4 °F 21.2 °F 19.4 °F 69% 29.92 in 10.0 mi South 6.9 mph - N/A   Scattered Clouds
5:35 AM 30.2 °F 24.3 °F 19.4 °F 64% 29.92 in 10.0 mi SSE 5.8 mph - N/A   Mostly Cloudy
5:55 AM 30.2 °F 25.4 °F 19.4 °F 64% 29.93 in 10.0 mi South 4.6 mph - N/A   Mostly Cloudy
6:15 AM 33.8 °F 30.8 °F 17.6 °F 52% 29.93 in 10.0 mi NNW 3.5 mph - N/A   Overcast
6:35 AM 33.8 °F 30.8 °F 17.6 °F 52% 29.94 in 10.0 mi NNE 3.5 mph - N/A   Mostly Cloudy
6:55 AM 33.8 °F 29.6 °F 17.6 °F 52% 29.94 in 10.0 mi NNE 4.6 mph - N/A   Overcast
7:15 AM 32.0 °F - 19.4 °F 60% 29.94 in 5.0 mi Calm Calm - N/A   Overcast
7:35 AM 32.0 °F 24.8 °F 19.4 °F 60% 29.95 in 4.0 mi East 8.1 mph - N/A   Overcast
7:55 AM 30.2 °F 21.3 °F 21.2 °F 69% 29.96 in 1.5 mi East 10.4 mph - N/A   Overcast
8:15 AM 32.0 °F 23.6 °F 23.0 °F 69% 29.95 in 10.0 mi SE 10.4 mph - N/A   Mostly Cloudy
8:35 AM 33.8 °F 25.3 °F 21.2 °F 60% 29.96 in 10.0 mi East 11.5 mph - N/A   Mostly Cloudy
8:55 AM 33.8 °F - 23.0 °F 65% 29.97 in 10.0 mi Calm Calm - N/A   Overcast
9:15 AM 33.8 °F 25.3 °F 23.0 °F 65% 29.98 in 10.0 mi West 11.5 mph 17.3 mph N/A   Overcast
9:35 AM 37.4 °F 28.9 °F 21.2 °F 52% 29.98 in 10.0 mi West 13.8 mph 18.4 mph N/A   Overcast
9:55 AM 37.4 °F 27.8 °F 21.2 °F 52% 29.98 in 10.0 mi WNW 17.3 mph - N/A   Overcast
10:15 AM 37.4 °F 32.1 °F 21.2 °F 52% 29.99 in 10.0 mi West 6.9 mph - N/A   Overcast
10:35 AM 37.4 °F 32.8 °F 21.2 °F 52% 29.99 in 10.0 mi North 5.8 mph - N/A   Overcast
10:55 AM 37.4 °F 30.3 °F 21.2 °F 52% 29.99 in 10.0 mi WNW 10.4 mph - N/A   Overcast
11:15 AM 41.0 °F 31.9 °F 21.2 °F 45% 29.99 in 10.0 mi West 19.6 mph 26.5 mph N/A   Overcast
11:35 AM 39.2 °F 28.7 °F 17.6 °F 42% 30.00 in 10.0 mi WNW 23.0 mph 29.9 mph N/A   Mostly Cloudy
11:55 AM 39.2 °F 28.7 °F 17.6 °F 42% 30.00 in 10.0 mi WNW 23.0 mph 33.4 mph N/A   Mostly Cloudy
12:15 PM 39.2 °F 28.7 °F 19.4 °F 45% 30.00 in 10.0 mi WNW 23.0 mph 33.4 mph N/A   Mostly Cloudy
12:35 PM 39.2 °F 28.5 °F 17.6 °F 42% 30.00 in 10.0 mi WNW 24.2 mph 29.9 mph N/A   Mostly Cloudy
12:55 PM 39.2 °F 30.2 °F 17.6 °F 42% 30.01 in 10.0 mi NW 17.3 mph 21.9 mph N/A   Mostly Cloudy
1:15 PM 41.0 °F 31.1 °F 19.4 °F 42% 30.01 in 10.0 mi WNW 23.0 mph 29.9 mph N/A   Overcast
1:35 PM 42.8 °F 34.0 °F 19.4 °F 39% 30.01 in 10.0 mi WNW 20.7 mph 26.5 mph N/A   Overcast
1:55 PM 39.2 °F 31.2 °F 17.6 °F 42% 30.01 in 10.0 mi WNW 13.8 mph 20.7 mph N/A   Overcast
2:15 PM 41.0 °F 32.5 °F 19.4 °F 42% 30.01 in 10.0 mi WNW 17.3 mph 31.1 mph N/A   Overcast
2:35 PM 39.2 °F 31.6 °F 17.6 °F 42% 30.02 in 10.0 mi WNW 12.7 mph 24.2 mph N/A   Overcast
2:55 PM 39.2 °F 29.0 °F 17.6 °F 42% 30.02 in 10.0 mi WNW 21.9 mph 26.5 mph N/A   Overcast
3:15 PM 39.2 °F 29.0 °F 17.6 °F 42% 30.02 in 10.0 mi WNW 21.9 mph 29.9 mph N/A   Mostly Cloudy
3:35 PM 39.2 °F 30.5 °F 17.6 °F 42% 30.03 in 10.0 mi NW 16.1 mph 26.5 mph N/A   Overcast
3:55 PM 39.2 °F 29.8 °F 17.6 °F 42% 30.03 in 10.0 mi WNW 18.4 mph 27.6 mph N/A   Mostly Cloudy
4:15 PM 39.2 °F 30.8 °F 17.6 °F 42% 30.04 in 10.0 mi WNW 15.0 mph 21.9 mph N/A   Mostly Cloudy
4:35 PM 37.4 °F 27.8 °F 19.4 °F 48% 30.05 in 10.0 mi West 17.3 mph 21.9 mph N/A   Overcast
4:55 PM 35.6 °F 27.5 °F 21.2 °F 56% 30.06 in 10.0 mi West 11.5 mph 20.7 mph N/A   Mostly Cloudy
5:15 PM 35.6 °F 27.5 °F 21.2 °F 56% 30.06 in 10.0 mi West 11.5 mph - N/A   Mostly Cloudy
5:35 PM 35.6 °F 30.7 °F 21.2 °F 56% 30.07 in 10.0 mi WNW 5.8 mph - N/A   Mostly Cloudy
5:55 PM 35.6 °F 29.9 °F 21.2 °F 56% 30.07 in 10.0 mi WNW 6.9 mph - N/A   Mostly Cloudy
6:15 PM 35.6 °F 31.7 °F 21.2 °F 56% 30.08 in 10.0 mi North 4.6 mph - N/A   Mostly Cloudy
6:35 PM 35.6 °F - 21.2 °F 56% 30.09 in 10.0 mi Calm Calm - N/A   Mostly Cloudy
6:55 PM 35.6 °F 30.7 °F 21.2 °F 56% 30.10 in 6.0 mi NNW 5.8 mph - N/A   Mostly Cloudy
7:15 PM 33.8 °F 28.6 °F 21.2 °F 60% 30.10 in 10.0 mi ENE 5.8 mph - N/A   Overcast
7:35 PM 33.8 °F 29.6 °F 23.0 °F 65% 30.10 in 10.0 mi East 4.6 mph - N/A   Overcast
7:55 PM 33.8 °F 29.6 °F 23.0 °F 65% 30.11 in 9.0 mi ENE 4.6 mph - N/A   Overcast
8:15 PM 33.8 °F 28.6 °F 24.8 °F 70% 30.11 in 7.0 mi SSW 5.8 mph - N/A   Mostly Cloudy
8:35 PM 33.8 °F - 23.0 °F 65% 30.12 in 10.0 mi Calm Calm - N/A   Overcast
8:55 PM 33.8 °F 29.6 °F 23.0 °F 65% 30.12 in 10.0 mi East 4.6 mph - N/A   Overcast
9:15 PM 32.0 °F 24.2 °F 24.8 °F 75% 30.12 in 10.0 mi ESE 9.2 mph - N/A   Overcast
9:35 PM 32.0 °F 24.2 °F 24.8 °F 75% 30.12 in 10.0 mi SE 9.2 mph - N/A   Overcast
9:55 PM 32.0 °F 23.6 °F 24.8 °F 75% 30.12 in 10.0 mi ESE 10.4 mph - N/A   Mostly Cloudy
10:15 PM 33.8 °F 24.3 °F 24.8 °F 70% 30.12 in 10.0 mi SE 13.8 mph - N/A   Overcast
10:35 PM 33.8 °F 24.8 °F 24.8 °F 70% 30.12 in 10.0 mi SE 12.7 mph - N/A   Overcast
10:55 PM 33.8 °F 26.4 °F 24.8 °F 70% 30.13 in 9.0 mi SE 9.2 mph - N/A   Overcast
11:15 PM 33.8 °F 28.6 °F 24.8 °F 70% 30.13 in 6.0 mi ESE 5.8 mph - N/A   Overcast
11:35 PM 33.8 °F 30.8 °F 24.8 °F 70% 30.14 in 7.0 mi ESE 3.5 mph - N/A   Overcast
11:55 PM 33.8 °F - 24.8 °F 70% 30.14 in 5.0 mi Calm Calm - N/A   Overcast